OK1CBR-13 Weather Reports


Display with metric or nautical units.
time (UTC)temp
F
wind
direction
speed
MPH
gust
MPH
rain 1hr
in
rain 24hr
in
rain mn
in
humidity
%
barometer
mb
20260502130732 79 0.0 0.0 0.00 0.00 0.00 22 1022.3
20260502123732 79 0.0 0.0 0.00 0.00 0.00 24 1022.8
20260502122732 79 0.0 0.0 0.00 0.00 0.00 23 1023.0
20260502121732 78 0.0 0.0 0.00 0.00 0.00 22 1023.1
20260502120732 77 0.0 0.0 0.00 0.00 0.00 22 1023.2
20260502115732 78 0.0 0.0 0.00 0.00 0.00 24 1023.4
20260502114732 75 0.0 0.0 0.00 0.00 0.00 24 1023.5
20260502113732 76 0.0 0.0 0.00 0.00 0.00 23 1023.7
20260502112732 75 0.0 0.0 0.00 0.00 0.00 25 1023.9
20260502111732 75 0.0 0.0 0.00 0.00 0.00 25 1024.0
20260502110732 74 0.0 0.0 0.00 0.00 0.00 26 1024.2
20260502105732 75 0.0 0.0 0.00 0.00 0.00 26 1024.3
20260502104732 74 0.0 0.0 0.00 0.00 0.00 28 1024.5
20260502103732 73 0.0 0.0 0.00 0.00 0.00 27 1024.5
20260502102732 74 0.0 0.0 0.00 0.00 0.00 26 1024.6
20260502101732 72 0.0 0.0 0.00 0.00 0.00 30 1024.8
20260502100732 73 0.0 0.0 0.00 0.00 0.00 29 1024.9
20260502090732 68 0.0 0.0 0.00 0.00 0.00 34 1025.5
20260502070732 56 0.0 0.0 0.00 0.00 0.00 62 1026.5
20260502065732 55 0.0 0.0 0.00 0.00 0.00 64 1026.6
20260502064732 54 0.0 0.0 0.00 0.00 0.00 65 1026.6
20260502063732 53 0.0 0.0 0.00 0.00 0.00 66 1026.6
20260502062732 52 0.0 0.0 0.00 0.00 0.00 69 1026.7
20260502061732 51 0.0 0.0 0.00 0.00 0.00 70 1026.6
20260502060732 50 0.0 0.0 0.00 0.00 0.00 73 1026.5
20260502055732 48 0.0 0.0 0.00 0.00 0.00 75 1026.6
20260502054733 47 0.0 0.0 0.00 0.00 0.00 78 1026.6
20260502053732 47 0.0 0.0 0.00 0.00 0.00 78 1026.6
20260502052732 46 0.0 0.0 0.00 0.00 0.00 83 1026.5
20260502051732 45 0.0 0.0 0.00 0.00 0.00 86 1026.5
20260502050732 44 0.0 0.0 0.00 0.00 0.00 87 1026.5
20260502045732 44 0.0 0.0 0.00 0.00 0.00 86 1026.5
20260502044733 44 0.0 0.0 0.00 0.00 0.00 86 1026.5
20260502042733 43 0.0 0.0 0.00 0.00 0.00 80 1026.4
20260502041733 43 0.0 0.0 0.00 0.00 0.00 80 1026.4
20260502040733 43 0.0 0.0 0.00 0.00 0.00 80 1026.4
20260502035736 43 0.0 0.0 0.00 0.00 0.00 82 1026.4
20260502034731 43 0.0 0.0 0.00 0.00 0.00 83 1026.4
20260502033731 43 0.0 0.0 0.00 0.00 0.00 79 1026.4
20260502032731 44 0.0 0.0 0.00 0.00 0.00 79 1026.4
20260502031731 44 0.0 0.0 0.00 0.00 0.00 81 1026.4
20260502030731 44 0.0 0.0 0.00 0.00 0.00 79 1026.4
20260502025734 44 0.0 0.0 0.00 0.00 0.00 78 1026.4
20260502024731 45 0.0 0.0 0.00 0.00 0.00 78 1026.5
20260502023731 45 0.0 0.0 0.00 0.00 0.00 79 1026.5
20260502022731 45 0.0 0.0 0.00 0.00 0.00 74 1026.6
20260502021731 45 0.0 0.0 0.00 0.00 0.00 74 1026.5
20260502020731 46 0.0 0.0 0.00 0.00 0.00 75 1026.5
20260502015731 46 0.0 0.0 0.00 0.00 0.00 75 1026.4
20260502014731 46 0.0 0.0 0.00 0.00 0.00 70 1026.5
20260502013731 46 0.0 0.0 0.00 0.00 0.00 70 1026.4
20260502012731 47 0.0 0.0 0.00 0.00 0.00 69 1026.5
20260502011732 47 0.0 0.0 0.00 0.00 0.00 70 1026.6
20260502010731 47 0.0 0.0 0.00 0.00 0.00 69 1026.6
20260502005731 48 0.0 0.0 0.00 0.00 0.00 70 1026.6
20260502004731 48 0.0 0.0 0.00 0.00 0.00 68 1026.6
20260502003732 48 0.0 0.0 0.00 0.00 0.00 66 1026.6
20260502002732 49 0.0 0.0 0.00 0.00 0.00 65 1026.6
20260502001732 49 0.0 0.0 0.00 0.00 0.00 64 1026.6
20260502000731 49 0.0 0.0 0.00 0.00 0.00 64 1026.5
20260501235732 49 0.0 0.0 0.00 0.00 0.00 64 1026.6
20260501234732 50 0.0 0.0 0.00 0.00 0.00 64 1026.6
20260501233732 50 0.0 0.0 0.00 0.00 0.00 63 1026.7
20260501232732 50 0.0 0.0 0.00 0.00 0.00 62 1026.7
20260501231731 51 0.0 0.0 0.00 0.00 0.00 62 1026.7
20260501230732 51 0.0 0.0 0.00 0.00 0.00 63 1026.7
20260501225732 51 0.0 0.0 0.00 0.00 0.00 61 1026.8
20260501224732 51 0.0 0.0 0.00 0.00 0.00 61 1026.9
20260501223732 52 0.0 0.0 0.00 0.00 0.00 60 1026.9
20260501222732 52 0.0 0.0 0.00 0.00 0.00 58 1026.8
20260501221732 53 0.0 0.0 0.00 0.00 0.00 58 1026.9
20260501220732 53 0.0 0.0 0.00 0.00 0.00 58 1026.9
20260501215732 53 0.0 0.0 0.00 0.00 0.00 57 1026.8
20260501214732 54 0.0 0.0 0.00 0.00 0.00 56 1026.7
20260501213732 54 0.0 0.0 0.00 0.00 0.00 55 1026.7
20260501212732 55 0.0 0.0 0.00 0.00 0.00 54 1026.7
20260501211732 55 0.0 0.0 0.00 0.00 0.00 53 1026.7
20260501210732 55 0.0 0.0 0.00 0.00 0.00 53 1026.7
20260501205732 56 0.0 0.0 0.00 0.00 0.00 52 1026.6
20260501204732 56 0.0 0.0 0.00 0.00 0.00 52 1026.5
20260501203732 57 0.0 0.0 0.00 0.00 0.00 52 1026.5
20260501202732 57 0.0 0.0 0.00 0.00 0.00 50 1026.5
20260501201732 58 0.0 0.0 0.00 0.00 0.00 48 1026.5
20260501200732 58 0.0 0.0 0.00 0.00 0.00 48 1026.5
20260501195732 59 0.0 0.0 0.00 0.00 0.00 48 1026.6
20260501194732 60 0.0 0.0 0.00 0.00 0.00 45 1026.3
20260501193732 61 0.0 0.0 0.00 0.00 0.00 44 1026.3
20260501192732 61 0.0 0.0 0.00 0.00 0.00 44 1026.3
20260501191732 62 0.0 0.0 0.00 0.00 0.00 44 1026.3
20260501190732 63 0.0 0.0 0.00 0.00 0.00 40 1026.2
20260501185732 64 0.0 0.0 0.00 0.00 0.00 38 1026.2
20260501184732 65 0.0 0.0 0.00 0.00 0.00 37 1026.1
20260501183732 65 0.0 0.0 0.00 0.00 0.00 35 1026.1
20260501182732 66 0.0 0.0 0.00 0.00 0.00 34 1026.0
20260501181732 67 0.0 0.0 0.00 0.00 0.00 33 1025.8
20260501180732 69 0.0 0.0 0.00 0.00 0.00 31 1025.7
20260501175732 70 0.0 0.0 0.00 0.00 0.00 30 1025.6
20260501174732 74 0.0 0.0 0.00 0.00 0.00 26 1025.6
20260501173732 77 0.0 0.0 0.00 0.00 0.00 24 1025.6
20260501172732 79 0.0 0.0 0.00 0.00 0.00 22 1025.5
20260501171732 82 0.0 0.0 0.00 0.00 0.00 21 1025.4
20260501170732 85 0.0 0.0 0.00 0.00 0.00 18 1025.5
20260501165732 87 0.0 0.0 0.00 0.00 0.00 19 1025.5
20260501163732 84 0.0 0.0 0.00 0.00 0.00 20 1025.6
20260501162732 86 0.0 0.0 0.00 0.00 0.00 19 1025.7
20260501161732 87 0.0 0.0 0.00 0.00 0.00 19 1025.6
20260501160732 85 0.0 0.0 0.00 0.00 0.00 20 1025.7
20260501155736 83 0.0 0.0 0.00 0.00 0.00 21 1025.8
20260501154731 83 0.0 0.0 0.00 0.00 0.00 22 1025.9
20260501153731 82 0.0 0.0 0.00 0.00 0.00 21 1025.9
20260501152731 78 0.0 0.0 0.00 0.00 0.00 22 1026.0
20260501151731 81 0.0 0.0 0.00 0.00 0.00 20 1026.1
20260501150731 82 0.0 0.0 0.00 0.00 0.00 21 1026.1